Theta_e
301 300 300 300 298 296 295 294 295 295 295 296 297 298 297 295 295 293 292 291 290 291
300 300 299 297 295 294 294 296 295 295 295 296 297 297 296 295 294 293 293 292 291 290
299 297 295 294 293 293 293 294 294 294 294 295 296 296 295 294 294 293 292 292 290 290
295 294 293 293 293 293 292 292 292 292 293 293 293 294 293 293 294 293 292 292 291 290
293 293 292 292 291 291 291 291 291 291 291 291 292 291 291 291 291 291 291 291 291 290
291 291 290 290 291 291 291 290 290 290 290 290 291 290 290 290 290 290 290 290 289 289
290 290 290 290 290 290 290 289 289 289 290 290 290 290 289 290 289 289 289 289 289 288
290 290 290 290 289 289 289 289 289 289 289 288 289 290 289 290 289 288 288 288 288 288
289 290 289 289 289 289 288 288 288 287 287 287 289 293 295 294 289 289 288 287 287 287
289 289 289 289 288 288 287 286 286 286 286 286 286 292 295 295 290 288 287 286 286 287
289 289 288 288 287 287 286 286 285 285 285 284 286 292 293 294 289 287 286 286 286 285
289 288 288 287 286 285 285 284 284 285 284 283 284 290 293 292 286 285 285 286 286 285
289 288 287 286 285 284 284 284 283 283 282 285 284 288 291 291 286 284 285 285 285 290
287 286 285 283 282 282 281 281 280 281 281 281 282 283 290 292 286 284 285 284 285 285
Wind_Speed
5 4 3 3 2 1 2 2 2 2 2 3 3 3 2 2 4 4 4 6 5 3
4 3 3 3 3 1 2 2 1 2 3 3 3 3 2 2 4 3 4 5 4 4
3 3 4 4 3 2 1 0 2 3 3 3 3 2 1 2 2 3 3 3 5 4
4 4 3 3 2 2 1 1 1 2 2 3 3 3 3 3 3 3 4 3 5 6
5 5 5 4 3 2 0 1 1 2 3 3 3 4 3 4 4 4 4 5 4 6
4 3 2 2 1 1 1 1 3 2 3 4 4 4 4 4 4 5 5 5 5 6
4 4 3 2 2 1 1 2 2 3 3 3 4 4 5 5 5 5 5 5 5 5
4 4 4 3 3 3 3 3 3 3 4 3 3 3 4 5 5 6 6 6 5 6
3 4 4 4 3 3 3 3 2 3 4 5 3 8 10 8 5 5 6 6 6 5
3 3 4 3 2 3 3 2 4 4 4 5 5 9 10 10 4 5 6 6 6 5
3 3 2 1 2 3 2 3 3 4 4 4 5 9 10 10 5 5 6 6 7 6
3 4 3 3 4 3 3 3 3 3 4 4 7 9 11 10 5 5 7 6 6 6
4 4 4 4 4 3 2 3 3 5 5 7 7 12 13 10 3 5 6 6 7 14
4 4 4 2 2 2 3 3 4 5 6 6 6 7 13 13 5 4 6 5 6 5
Wind_Direction
189 194 196 187 178 171 205 247 281 313 323 310 307 302 272 230 231 209 222 227 222 225
193 182 184 168 155 182 222 241 325 341 332 338 330 314 278 238 248 221 234 238 238 231
158 172 171 158 178 203 240 296 351 350 357 333 322 327 331 292 280 255 261 242 245 241
165 176 150 160 172 191 206 233 321 328 324 327 333 342 342 319 295 280 282 266 248 257
179 168 171 185 192 182 250 354 321 321 324 326 326 330 325 313 311 287 282 273 261 263
173 158 181 190 179 172 214 323 335 331 322 318 318 315 306 290 285 281 276 275 268 271
186 193 191 184 188 194 213 258 273 270 276 280 288 294 296 293 293 294 286 287 273 273
188 180 175 188 200 210 219 240 257 279 283 292 295 282 298 288 283 282 290 284 275 265
178 180 203 210 218 230 258 286 292 298 296 303 290 295 300 298 276 279 275 281 278 271
188 205 221 223 236 280 287 290 291 294 294 292 294 300 306 301 277 272 269 266 269 285
203 228 245 233 249 267 256 261 273 277 275 289 287 292 298 299 281 276 279 268 264 251
205 215 208 232 253 247 245 256 257 259 284 277 288 298 303 309 286 278 272 266 257 249
196 192 213 233 243 238 230 267 288 295 269 277 280 300 303 308 275 289 289 284 278 281
186 204 224 237 212 245 264 278 286 281 284 279 271 280 302 304 285 263 286 267 274 264